EW6511 Weather Reports


Display with metric or nautical units.
time (UTC)temp
F
wind
direction
speed
MPH
gust
MPH
rain 1hr
in
rain 24hr
in
rain mn
in
humidity
%
barometer
mb
20260903004939 61 173 0.0 0.0 0.00 0.00 0.00 62 1025.5
20260903002933 62 173 0.0 2.0 0.00 0.00 0.00 62 1025.2
20260903000933 61 173 0.0 0.0 0.00 0.00 0.00 62 1025.3
20260902235932 61 173 0.0 1.0 0.00 0.00 0.00 62 1025.3
20260902231934 62 173 0.0 0.0 0.00 0.00 0.00 61 1025.5
20260902230933 62 173 0.0 2.0 0.00 0.00 0.00 61 1025.3
20260902225933 63 173 1.0 2.0 0.00 0.00 0.00 61 1025.5
20260902224931 63 173 0.0 2.0 0.00 0.00 0.00 60 1025.6
20260902223930 63 173 0.0 0.0 0.00 0.00 0.00 60 1025.7
20260902222931 63 173 0.0 0.0 0.00 0.00 0.00 59 1025.6
20260902221929 63 173 0.0 0.0 0.00 0.00 0.00 60 1025.6
20260902220930 63 173 0.0 0.0 0.00 0.00 0.00 60 1025.6
20260902215931 63 173 0.0 1.0 0.00 0.00 0.00 60 1025.6
20260902214931 63 173 2.0 5.0 0.00 0.00 0.00 60 1025.5
20260902212929 63 173 2.0 5.0 0.00 0.00 0.00 60 1025.5
20260902210930 64 173 0.0 1.0 0.00 0.00 0.00 59 1025.5
20260902205931 64 173 1.0 3.0 0.00 0.00 0.00 58 1025.5
20260902204931 64 173 1.0 3.0 0.00 0.00 0.00 58 1025.2
20260902203931 64 173 0.0 0.0 0.00 0.00 0.00 58 1025.2
20260902202929 64 173 0.0 1.0 0.00 0.00 0.00 58 1025.2
20260902201931 64 173 2.0 5.0 0.00 0.00 0.00 59 1025.0
20260902200930 65 201 2.0 4.0 0.00 0.00 0.00 58 1025.2
20260902195929 66 286 0.0 2.0 0.00 0.00 0.00 57 1025.2
20260902193930 67 286 0.0 0.0 0.00 0.00 0.00 54 1025.1
20260902190929 68 286 1.0 2.0 0.00 0.00 0.00 53 1024.8
20260902185930 68 286 1.0 3.0 0.00 0.00 0.00 54 1024.8
20260902184927 69 286 0.0 1.0 0.00 0.00 0.00 51 1024.6
20260902182928 71 286 1.0 3.0 0.00 0.00 0.00 46 1024.3
20260902181929 71 284 1.0 3.0 0.00 0.00 0.00 47 1024.3
20260902180922 72 284 1.0 3.0 0.00 0.00 0.00 46 1024.2
20260902175922 73 284 1.0 2.0 0.00 0.00 0.00 43 1024.1
20260902174921 73 284 1.0 3.0 0.00 0.00 0.00 42 1024.0
20260902173921 74 284 3.0 6.0 0.00 0.00 0.00 42 1023.9
20260902172922 74 283 4.0 8.0 0.00 0.00 0.00 40 1023.9
20260902171922 75 296 5.0 8.0 0.00 0.00 0.00 39 1023.9
20260902170921 75 278 5.0 8.0 0.00 0.00 0.00 40 1023.7
20260902164922 76 313 7.0 10.0 0.00 0.00 0.00 39 1023.5
20260902163916 76 304 5.0 9.0 0.00 0.00 0.00 41 1023.7
20260902162915 76 283 5.0 9.0 0.00 0.00 0.00 43 1023.6
20260902161915 75 328 7.0 10.0 0.00 0.00 0.00 40 1023.6
20260902160917 76 292 9.0 12.0 0.00 0.00 0.00 38 1023.6
20260902155915 76 308 10.0 14.0 0.00 0.00 0.00 39 1023.6
20260902154915 77 311 7.0 12.0 0.00 0.00 0.00 39 1023.5
20260902153917 77 311 7.0 12.0 0.00 0.00 0.00 39 1023.5
20260902152916 77 297 9.0 17.0 0.00 0.00 0.00 37 1023.4
20260902150911 76 293 8.0 14.0 0.00 0.00 0.00 40 1023.5
20260902145910 76 323 9.0 16.0 0.00 0.00 0.00 37 1023.6
20260902144910 77 307 8.0 14.0 0.00 0.00 0.00 37 1023.5
20260902143910 77 281 9.0 15.0 0.00 0.00 0.00 35 1023.6
20260902142909 77 249 5.0 10.0 0.00 0.00 0.00 34 1023.7
20260902140909 76 307 8.0 13.0 0.00 0.00 0.00 36 1023.6
20260902135908 76 294 9.0 15.0 0.00 0.00 0.00 39 1023.7
20260902134909 76 267 9.0 16.0 0.00 0.00 0.00 37 1023.7
20260902133903 76 289 7.0 12.0 0.00 0.00 0.00 37 1023.7
20260902132903 76 261 6.0 12.0 0.00 0.00 0.00 35 1023.7
20260902124858 75 250 7.0 12.0 0.00 0.00 0.00 37 1023.9
20260902123902 75 319 5.0 12.0 0.00 0.00 0.00 38 1023.9
20260902122858 75 283 6.0 10.0 0.00 0.00 0.00 40 1024.0
20260902121858 75 326 4.0 9.0 0.00 0.00 0.00 39 1024.0
20260902120853 74 259 5.0 9.0 0.00 0.00 0.00 38 1024.1
20260902115854 74 226 5.0 9.0 0.00 0.00 0.00 42 1024.2
20260902114854 73 251 7.0 11.0 0.00 0.00 0.00 39 1024.2
20260902113852 73 224 5.0 9.0 0.00 0.00 0.00 41 1024.2
20260902111852 72 232 5.0 8.0 0.00 0.00 0.00 42 1024.5
20260902110852 72 233 7.0 11.0 0.00 0.00 0.00 44 1024.6
20260902105853 71 306 6.0 11.0 0.00 0.00 0.00 45 1024.6
20260902103854 70 261 5.0 9.0 0.00 0.00 0.00 47 1024.9
20260902102853 70 267 3.0 9.0 0.00 0.00 0.00 50 1025.1
20260902101853 69 274 4.0 8.0 0.00 0.00 0.00 53 1025.0
20260902100854 69 292 4.0 9.0 0.00 0.00 0.00 55 1025.1
20260902094852 67 309 4.0 9.0 0.00 0.00 0.00 55 1025.2
20260902093854 67 289 5.0 8.0 0.00 0.00 0.00 57 1025.3
20260902092853 66 286 3.0 9.0 0.00 0.00 0.00 53 1025.3
20260902091851 66 248 3.0 8.0 0.00 0.00 0.00 58 1025.3
20260902090850 65 220 3.0 6.0 0.00 0.00 0.00 58 1025.2
20260902085852 65 263 4.0 8.0 0.00 0.00 0.00 57 1025.3
20260902084852 65 240 4.0 8.0 0.00 0.00 0.00 58 1025.2
20260902082846 64 246 3.0 7.0 0.00 0.00 0.00 59 1024.9
20260902080848 64 290 4.0 7.0 0.00 0.00 0.00 60 1024.8
20260902075843 64 274 4.0 8.0 0.00 0.00 0.00 59 1024.7
20260902074844 64 255 2.0 5.0 0.00 0.00 0.00 58 1024.5
20260902073843 64 105 1.0 3.0 0.00 0.00 0.00 58 1024.5
20260902071843 64 103 0.0 0.0 0.00 0.00 0.00 61 1024.4
20260902070838 62 103 1.0 2.0 0.00 0.00 0.00 62 1024.4
20260902063836 57 167 0.0 3.0 0.00 0.00 0.00 69 1024.4
20260902062838 56 167 0.0 0.0 0.00 0.00 0.00 69 1024.4
20260902061837 55 167 0.0 1.0 0.00 0.00 0.00 69 1024.5
20260902055838 54 154 1.0 5.0 0.00 0.00 0.00 70 1024.6
20260902053831 54 146 0.0 0.0 0.00 0.00 0.00 70 1024.5
20260902052831 53 146 0.0 3.0 0.00 0.00 0.00 70 1024.4
20260902051831 53 166 2.0 4.0 0.00 0.00 0.00 70 1024.1
20260902050830 53 167 0.0 0.0 0.00 0.00 0.00 70 1024.1
20260902045832 53 153 0.0 0.0 0.00 0.00 0.00 70 1024.0
20260902044831 53 153 0.0 0.0 0.00 0.00 0.00 70 1024.0
20260902043832 53 153 0.0 0.0 0.00 0.00 0.00 69 1024.0
20260902042830 53 153 0.0 0.0 0.00 0.00 0.00 69 1023.9
20260902041832 53 153 0.0 0.0 0.00 0.00 0.00 69 1023.9
20260902040825 53 153 1.0 3.0 0.00 0.00 0.00 70 1023.9
20260902035825 53 153 1.0 2.0 0.00 0.00 0.00 70 1023.9
20260902034825 53 153 1.0 3.0 0.00 0.00 0.00 69 1024.1
20260902033825 54 153 2.0 3.0 0.00 0.00 0.00 69 1024.1
20260902030824 54 153 0.0 2.0 0.00 0.00 0.00 70 1024.0
20260902025825 54 153 0.0 2.0 0.00 0.00 0.00 70 1024.0
20260902024825 54 153 0.0 0.0 0.00 0.00 0.00 70 1024.0
20260902023818 54 153 0.0 0.0 0.00 0.00 0.00 69 1023.9
20260902022821 55 153 2.0 3.0 0.00 0.00 0.00 69 1024.0
20260902021822 55 153 1.0 2.0 0.00 0.00 0.00 68 1023.9
20260902020817 55 153 0.0 2.0 0.00 0.00 0.00 68 1023.9
20260902015817 56 153 2.0 3.0 0.00 0.00 0.00 68 1023.7
20260902014815 56 153 1.0 2.0 0.00 0.00 0.00 69 1023.9
20260902013813 55 153 0.0 0.0 0.00 0.00 0.00 69 1023.7
20260902012812 56 153 2.0 5.0 0.00 0.00 0.00 69 1024.0
20260902011812 56 153 3.0 5.0 0.00 0.00 0.00 69 1024.0
20260902010811 56 195 2.0 3.0 0.00 0.00 0.00 68 1024.1
20260902005812 56 195 3.0 4.0 0.00 0.00 0.00 68 1024.0